Weather History for Tomahawk, WI

Change the Weather History Date:

Saturday, November 24, 2012

  Actual Average (KRHI) Record (KRHI)
Temperature  
Mean Temperature 22 °F 26 °F  
Max Temperature 26 °F 33 °F 54 °F (1988)
Min Temperature 17 °F 18 °F -11 °F (1950)
Degree Days  
Heating Degree Days 44 39  
Month to date heating degree days 795  
Since 1 July heating degree days 1888  
Cooling Degree Days 0 0  
Month to date cooling degree days 0  
Year to date cooling degree days 261  
Moisture  
Dew Point 13 °F    
Average Humidity 71    
Maximum Humidity 93    
Minimum Humidity 51    
Precipitation  
Precipitation 0.00 in 0.06 in 1.01 in (2001)
Month to date precipitation 1.49  
Year to date precipitation 29.61  
Snow  
Snow 0.00 in - 2.40 in (1946)
Month to date snowfall  
Since 1 July snowfall  
Since 1 September snowfall  
Snow Depth -    
Sea Level Pressure  
Sea Level Pressure 30.05 in    
Wind  
Wind Speed 5 mph (WNW)    
Max Wind Speed 10 mph    
Max Gust Speed 18 mph    
Visibility 8 miles    
Events Snow    
T = Trace of Precipitation, MM = Missing Value Source: NWS Daily Summary

Daily Weather History Graph

Daily Weather History Graph

Search for Another Location

Airport:

Trip Planner

Search our weather history database for the weather conditions in past years. The results will help you decide how hot, cold, wet, or windy it might be!

Date:

Astronomy

Nov. 24, 2012 Rise Set
Actual Time 7:10 AM CST 4:20 PM CST
Civil Twilight 6:37 AM CST 4:53 PM CST
Nautical Twilight 6:01 AM CST 5:30 PM CST
Astronomical Twilight 5:25 AM CST 6:05 PM CST
Moon 2:13 PM CST (11/24) 3:19 AM CST (11/24)
Length of Visible Light 10h 15m
Length of Day
9h 10m
Waxing Gibbous, 87% of the Moon is Illuminated
Nov 24
Waxing Gibbous
Nov 28
Full
Dec 6
Last Quarter
Dec 13
New
Dec 19
First Quarter

Hourly Weather History & Observations

Time (CST) Temp. Windchill Dew Point Humidity Pressure Visibility Wind Dir Wind Speed Gust Speed Precip Events Conditions
12:15 AM 19.4 °F 9.5 °F 12.2 °F 74% 30.17 in 10.0 mi WNW 8.1 mph 17.3 mph N/A Snow Light Snow
12:35 AM 19.4 °F 9.5 °F 12.2 °F 74% 30.17 in 10.0 mi NW 8.1 mph - N/A Snow Light Snow
12:55 AM 19.4 °F 10.4 °F 12.2 °F 74% 30.17 in 5.0 mi WNW 6.9 mph - N/A Snow Light Snow
1:15 AM 19.4 °F 9.5 °F 12.2 °F 74% 30.18 in 7.0 mi WNW 8.1 mph - N/A Snow Light Snow
1:35 AM 19.4 °F 8.6 °F 12.2 °F 74% 30.18 in 7.0 mi WNW 9.2 mph 18.4 mph N/A Snow Light Snow
1:55 AM 19.4 °F 9.5 °F 12.2 °F 74% 30.18 in 7.0 mi NW 8.1 mph - N/A Snow Light Snow
2:15 AM 19.4 °F 8.6 °F 12.2 °F 74% 30.18 in 7.0 mi NW 9.2 mph - N/A Snow Light Snow
2:35 AM 19.4 °F 9.5 °F 12.2 °F 74% 30.18 in 7.0 mi NW 8.1 mph - N/A Snow Light Snow
2:55 AM 19.4 °F 9.5 °F 12.2 °F 74% 30.17 in 7.0 mi NW 8.1 mph - N/A Snow Light Snow
3:15 AM 19.4 °F 7.9 °F 12.2 °F 74% 30.17 in 7.0 mi WNW 10.4 mph - N/A Snow Light Snow
3:35 AM 19.4 °F 11.5 °F 12.2 °F 74% 30.17 in 7.0 mi NW 5.8 mph - N/A Snow Light Snow
3:55 AM 19.4 °F 11.5 °F 12.2 °F 74% 30.16 in 7.0 mi NW 5.8 mph - N/A Snow Light Snow
4:15 AM 19.4 °F 9.5 °F 12.2 °F 74% 30.17 in 7.0 mi NW 8.1 mph - N/A Snow Light Snow
4:35 AM 19.4 °F 11.5 °F 12.2 °F 74% 30.17 in 5.0 mi NW 5.8 mph - N/A Snow Light Snow
4:55 AM 19.4 °F 9.5 °F 12.2 °F 74% 30.17 in 7.0 mi NW 8.1 mph - N/A Snow Light Snow
5:15 AM 19.4 °F 12.8 °F 12.2 °F 74% 30.17 in 7.0 mi NW 4.6 mph - N/A Snow Light Snow
5:35 AM 19.4 °F 11.5 °F 12.2 °F 74% 30.17 in 5.0 mi NW 5.8 mph - N/A Snow Light Snow
5:55 AM 19.4 °F 9.5 °F 12.2 °F 74% 30.17 in 7.0 mi NW 8.1 mph - N/A Snow Light Snow
6:15 AM 17.6 °F 8.2 °F 12.2 °F 79% 30.18 in 7.0 mi WNW 6.9 mph - N/A Snow Light Snow
6:35 AM 17.6 °F 9.3 °F 12.2 °F 79% 30.18 in 7.0 mi WNW 5.8 mph - N/A Snow Light Snow
6:55 AM 17.6 °F 10.7 °F 12.2 °F 79% 30.18 in 7.0 mi WNW 4.6 mph - N/A Snow Light Snow
7:15 AM 17.6 °F 12.3 °F 12.2 °F 79% 30.17 in 7.0 mi WNW 3.5 mph - N/A Snow Light Snow
7:35 AM 17.6 °F 12.3 °F 12.2 °F 79% 30.17 in 7.0 mi WNW 3.5 mph - N/A Snow Light Snow
7:55 AM 17.6 °F 9.3 °F 12.2 °F 79% 30.17 in 7.0 mi NNW 5.8 mph - N/A Snow Light Snow
8:15 AM 17.6 °F 9.3 °F 12.2 °F 79% 30.16 in 7.0 mi NNW 5.8 mph - N/A Snow Light Snow
8:35 AM 19.4 °F 11.5 °F 12.2 °F 74% 30.16 in 7.0 mi NNW 5.8 mph - N/A Snow Light Snow
8:55 AM 19.4 °F 12.8 °F 12.2 °F 74% 30.16 in 10.0 mi NW 4.6 mph - N/A Snow Light Snow
9:15 AM 19.4 °F 14.3 °F 12.2 °F 74% 30.16 in 7.0 mi NNE 3.5 mph - N/A Snow Light Snow
9:35 AM 19.4 °F 12.8 °F 12.2 °F 74% 30.16 in 10.0 mi West 4.6 mph - N/A Snow Light Snow
9:55 AM 19.4 °F 12.8 °F 12.2 °F 74% 30.16 in 10.0 mi West 4.6 mph - N/A Snow Light Snow
10:15 AM 19.4 °F 11.5 °F 12.2 °F 74% 30.15 in 10.0 mi West 5.8 mph - N/A Snow Light Snow
10:35 AM 19.4 °F 14.3 °F 10.4 °F 68% 30.15 in 10.0 mi SW 3.5 mph - N/A   Overcast
10:55 AM 21.2 °F - 10.4 °F 63% 30.13 in 7.0 mi Calm Calm - N/A   Mostly Cloudy
11:15 AM 21.2 °F - 10.4 °F 63% 30.12 in 10.0 mi Calm Calm - N/A   Scattered Clouds
11:35 AM 21.2 °F - 12.2 °F 68% 30.10 in 10.0 mi Calm Calm - N/A   Clear
11:55 AM 21.2 °F 16.4 °F 12.2 °F 68% 30.10 in 10.0 mi SW 3.5 mph - N/A   Clear
12:15 PM 23.0 °F - 10.4 °F 59% 30.08 in 10.0 mi Calm Calm - N/A   Clear
12:35 PM 23.0 °F 18.4 °F 12.2 °F 63% 30.07 in 10.0 mi WSW 3.5 mph - N/A   Clear
12:55 PM 23.0 °F - 10.4 °F 59% 30.07 in 10.0 mi Calm Calm - N/A   Clear
1:15 PM 24.8 °F - 12.2 °F 59% 30.05 in 10.0 mi Calm Calm - N/A   Clear
1:35 PM 24.8 °F - 12.2 °F 59% 30.05 in 10.0 mi Calm Calm - N/A   Clear
1:55 PM 26.6 °F - 10.4 °F 51% 30.04 in 10.0 mi Calm Calm - N/A   Clear
2:15 PM 26.6 °F - 10.4 °F 51% 30.02 in 10.0 mi Calm Calm - N/A   Clear
2:35 PM 26.6 °F - 10.4 °F 51% 30.01 in 10.0 mi Calm Calm - N/A   Clear
2:55 PM 26.6 °F 22.6 °F 10.4 °F 51% 30.01 in 10.0 mi South 3.5 mph - N/A   Clear
3:15 PM 24.8 °F - 10.4 °F 54% 30.00 in 10.0 mi Calm Calm - N/A   Clear
3:35 PM 26.6 °F - 10.4 °F 51% 29.99 in 10.0 mi Calm Calm - N/A   Clear
3:55 PM 26.6 °F - 12.2 °F 55% 29.98 in 10.0 mi Calm Calm - N/A   Mostly Cloudy
4:15 PM 26.6 °F - 12.2 °F 55% 29.97 in 10.0 mi Calm Calm - N/A   Overcast
4:35 PM 24.8 °F - 10.4 °F 54% 29.97 in 10.0 mi Calm Calm - N/A   Mostly Cloudy
4:55 PM 23.0 °F - 12.2 °F 63% 29.97 in 10.0 mi Calm Calm - N/A   Scattered Clouds
5:15 PM 23.0 °F - 12.2 °F 63% 29.95 in 10.0 mi Calm Calm - N/A   Mostly Cloudy
5:35 PM 23.0 °F 18.4 °F 12.2 °F 63% 29.94 in 10.0 mi SSE 3.5 mph - N/A   Overcast
5:55 PM 23.0 °F - 12.2 °F 63% 29.94 in 10.0 mi Calm Calm - N/A   Overcast
6:15 PM 23.0 °F 18.4 °F 12.2 °F 63% 29.93 in 10.0 mi South 3.5 mph - N/A   Overcast
6:35 PM 23.0 °F - 14.0 °F 68% 29.92 in 10.0 mi Calm Calm - N/A   Overcast
6:55 PM 23.0 °F 18.4 °F 14.0 °F 68% 29.91 in 10.0 mi South 3.5 mph - N/A   Overcast
7:15 PM 23.0 °F - 14.0 °F 68% 29.90 in 10.0 mi Calm Calm - N/A   Overcast
7:35 PM 23.0 °F 18.4 °F 14.0 °F 68% 29.89 in 10.0 mi South 3.5 mph - N/A   Overcast
7:55 PM 23.0 °F 17.0 °F 14.0 °F 68% 29.88 in 10.0 mi South 4.6 mph - N/A   Overcast
8:15 PM 23.0 °F 18.4 °F 14.0 °F 68% 29.87 in 5.0 mi SSE 3.5 mph - N/A Snow Light Snow
8:35 PM 23.0 °F 18.4 °F 15.8 °F 74% 29.86 in 5.0 mi SSE 3.5 mph - N/A   Overcast
8:55 PM 23.0 °F - 17.6 °F 80% 29.85 in 2.5 mi Calm Calm - N/A Snow Light Snow
9:15 PM 21.2 °F - 19.4 °F 93% 29.86 in 1.0 mi Calm Calm - N/A Snow Snow
9:35 PM 21.2 °F 16.4 °F 19.4 °F 93% 29.85 in 1.0 mi ESE 3.5 mph - N/A Snow Snow
9:55 PM 21.2 °F - 19.4 °F 93% 29.85 in 1.8 mi Calm Calm - N/A Snow Light Snow
10:15 PM 23.0 °F - 19.4 °F 86% 29.85 in 3.0 mi Calm Calm - N/A Snow Light Snow
10:35 PM 21.2 °F - 19.4 °F 93% 29.83 in 1.5 mi Calm Calm - N/A Snow Light Snow
10:55 PM 23.0 °F 18.4 °F 19.4 °F 86% 29.82 in 1.8 mi SE 3.5 mph - N/A Snow Light Snow
11:15 PM 23.0 °F 18.4 °F 19.4 °F 86% 29.81 in 1.2 mi SSE 3.5 mph - N/A Snow Light Snow
11:35 PM 23.0 °F 18.4 °F 19.4 °F 86% 29.80 in 0.8 mi SSE 3.5 mph - N/A Snow Snow
11:55 PM 23.0 °F - 21.2 °F 93% 29.79 in 1.5 mi Calm Calm - N/A Snow Light Snow